CanjetBLOCKVirtuelBLOCKQcBLOCKBLOCKBLOCKBLOCKBLOCKBLOCKBLOCKBLOCKBLOCKBLOCKBLOCKvolsBLOCKavecBLOCKFS-kACARS2020-01-21BLOCK12colon51am

volsBLOCKBLOCKBLOCKBLOCKBLOCKpilotesBLOCKBLOCKBLOCKBLOCKBLOCKBLOCKBLOCKBLOCKtypeBLOCKBLOCKdepBLOCKBLOCKarrBLOCKBLOCKBLOCKBLOCKBLOCKaltBLOCKBLOCKBLOCKBLOCKBLOCKgsBLOCKBLOCKBLOCKBLOCKstatut

CJA7106ClaudeBLOCKLB77LKLAX-LLBG0ft0ktsarrived










BLOCKAppuyerBLOCKsurBLOCKF5BLOCKpourBLOCKactualiserBLOCKBLOCKBLOCKMiseBLOCKaBLOCKjourcolonBLOCK00colon51colon19amCanjetBLOCKvirtuelBLOCKQC

Microsoft flight sim 2020

Publié par Yvan Roy le 2019-06-25

 

Microsoft flight simulator 2020 encore plus fort sera disponible pour votre PC au début 2020 .

 

https://www.flightsimulator.com/
 

                                                   

 




Bienvenue chez Canjetvirtuel-Q

Publié par Michel Ayotte le 2013-06-14

 

Canjetvirtuel-Québec est une compagnie aérienne virtuelle qui a été fondée par 2 passionnés de la simulation de vol.

Elle est opérée avec les Boeing 737. Exceptionnelement et pour votre plaisir les Boeing 747,757,767 et 777 sont autorisés pour des vols de plus de 1,5 heure.

Ces appareils pouvant faire des vols cargos ou des vols passagers,que ce soit au Canada, Europe, États-Unis, Mexique et Caraïbes.

Vous trouverez votre place comme pilote chez nous!



Avis

Aux fins de la simulation de vol seulement. CanjetVirtuel Québec n'est en aucun cas affilié avec n'importe quelle compagnie aérienne du monde réel. CanjetVirtuel Québec est un site à but non lucratif gérée par des amateurs de simulation de vol. Toutes les images sont la propriété exclusive de leurs propriétaires respectifs.
| propulsé par phpVMS, © 2013-2019.

Notice

For flight simulation purposes only. CanjetVirtuel Quebec is in no way affiliated with any real world airline. CanjetVirtuel Quebec is a non-profit site run by flight simulation enthusiasts. All images are the sole property of their respective owners.
| powered by phpVMS, © 2013-2019.

Affiliations

Vatsim

Les statistiques du site

Nombre de pilotes: 16
Total des vols effectués: 5224
Trajets disponibles: 543
Passagers transportés: 958181
Total des heures de vol: 16325
Distance totale (NM): 6371920
Pilotes en ligne: 0

METAR

CYHZ 210546Z 32006KT 12SM -SN OVC032 M12/M13 A3007 RMK ST8 SLP194

CYQB 210500Z 24011KT 15SM SKC M16/M19 A3025 RMK SLP253

CYUL 210500Z 23006KT 15SM SKC M15/M19 A3037 RMK SLP288

CYYZ 210500Z 23002KT 15SM BKN040 M08/M10 A3045 RMK SC5 SLP325